N834WF KLOU-KFFT

Flight info

Callsign N834WF
Flight time 0h 18m
Altitude VFR/040
Route
Aircraft C152/L-DOV/C

Departure

Time 2026-04-23 02:59
Airport Bowman Field (KLOU)

Arrival

Time 2026-04-23 03:17
Airport Capital City Airport (KFFT)
Time Latitude Longitude Altitude Speed Heading
2026-04-23 02:58 38.23306 -85.48971 3133 ft 115 kts 96°
2026-04-23 02:59 38.23279 -85.47947 3218 ft 116 kts 97°
2026-04-23 02:59 38.23230 -85.46932 3269 ft 114 kts 99°
2026-04-23 02:59 38.23167 -85.45949 3351 ft 110 kts 98°
2026-04-23 02:59 38.23109 -85.44987 3406 ft 108 kts 101°
2026-04-23 03:00 38.23038 -85.44032 3439 ft 108 kts 100°
2026-04-23 03:00 38.22971 -85.43090 3483 ft 108 kts 101°
2026-04-23 03:00 38.22883 -85.42131 3529 ft 107 kts 103°
2026-04-23 03:00 38.22787 -85.41201 3585 ft 106 kts 104°
2026-04-23 03:01 38.22725 -85.40270 3624 ft 107 kts 94°
2026-04-23 03:01 38.22641 -85.39335 3703 ft 107 kts 105°
2026-04-23 03:01 38.22526 -85.38392 3828 ft 108 kts 104°
2026-04-23 03:01 38.22400 -85.37438 3903 ft 111 kts 108°
2026-04-23 03:02 38.22244 -85.36466 3949 ft 113 kts 109°
2026-04-23 03:02 38.22080 -85.35477 3978 ft 114 kts 109°
2026-04-23 03:02 38.21905 -85.34492 3961 ft 114 kts 110°
2026-04-23 03:02 38.21749 -85.33497 3956 ft 115 kts 106°
2026-04-23 03:03 38.21622 -85.32508 3961 ft 115 kts 104°
2026-04-23 03:03 38.21492 -85.31510 3971 ft 113 kts 105°
2026-04-23 03:03 38.21367 -85.30517 3943 ft 114 kts 104°
2026-04-23 03:03 38.21240 -85.29530 3967 ft 113 kts 105°
2026-04-23 03:04 38.21107 -85.28528 3967 ft 114 kts 105°
2026-04-23 03:04 38.20981 -85.27533 3980 ft 115 kts 104°
2026-04-23 03:04 38.20882 -85.26541 3972 ft 113 kts 104°
2026-04-23 03:04 38.20770 -85.25557 3975 ft 112 kts 104°
2026-04-23 03:05 38.20654 -85.24577 3967 ft 113 kts 105°
2026-04-23 03:05 38.20529 -85.23597 3956 ft 114 kts 106°
2026-04-23 03:05 38.20397 -85.22607 3966 ft 113 kts 108°
2026-04-23 03:05 38.20240 -85.21624 3936 ft 115 kts 108°
2026-04-23 03:06 38.20072 -85.20630 3921 ft 116 kts 108°
2026-04-23 03:06 38.19901 -85.19640 3914 ft 115 kts 108°
2026-04-23 03:06 38.19697 -85.18638 3844 ft 116 kts 112°
2026-04-23 03:06 38.19493 -85.17675 3859 ft 110 kts 112°
2026-04-23 03:07 38.19275 -85.16733 3875 ft 112 kts 114°
2026-04-23 03:07 38.19064 -85.15783 3905 ft 112 kts 111°
2026-04-23 03:07 38.18855 -85.14837 3915 ft 111 kts 113°
2026-04-23 03:07 38.18637 -85.13899 3891 ft 111 kts 113°
2026-04-23 03:08 38.18453 -85.12936 3875 ft 113 kts 109°
2026-04-23 03:08 38.18303 -85.11952 3876 ft 113 kts 106°
2026-04-23 03:08 38.18185 -85.10955 3828 ft 116 kts 102°
2026-04-23 03:08 38.18149 -85.09936 3807 ft 115 kts 97°
2026-04-23 03:09 38.18134 -85.08908 3814 ft 116 kts 96°
2026-04-23 03:09 38.18091 -85.07899 3859 ft 113 kts 99°
2026-04-23 03:09 38.18033 -85.06887 3844 ft 116 kts 99°
2026-04-23 03:09 38.17945 -85.05850 3755 ft 119 kts 102°
2026-04-23 03:10 38.17838 -85.04854 3787 ft 109 kts 107°
2026-04-23 03:10 38.17688 -85.03896 3751 ft 114 kts 106°
2026-04-23 03:10 38.17531 -85.02886 3689 ft 115 kts 109°
2026-04-23 03:10 38.17385 -85.01892 3669 ft 115 kts 105°
2026-04-23 03:11 38.17237 -85.00899 3637 ft 113 kts 106°
2026-04-23 03:11 38.17107 -84.99910 3616 ft 116 kts 102°
2026-04-23 03:11 38.17036 -84.98872 3575 ft 118 kts 97°
2026-04-23 03:11 38.16992 -84.97823 3523 ft 118 kts 98°
2026-04-23 03:12 38.16936 -84.96768 3369 ft 130 kts 102°
2026-04-23 03:12 38.16829 -84.95569 2921 ft 143 kts 95°
2026-04-23 03:12 38.16845 -84.94321 2764 ft 133 kts 91°
2026-04-23 03:12 38.16925 -84.93205 2662 ft 124 kts 83°
2026-04-23 03:13 38.17098 -84.92139 2500 ft 122 kts 76°
2026-04-23 03:13 38.17342 -84.91166 2501 ft 112 kts 71°
2026-04-23 03:13 38.17569 -84.90198 2311 ft 116 kts 75°
2026-04-23 03:13 38.17712 -84.89195 1996 ft 112 kts 86°
2026-04-23 03:14 38.17678 -84.88232 1671 ft 109 kts 109°
2026-04-23 03:14 38.17415 -84.87392 1330 ft 97 kts 123°
2026-04-23 03:14 38.17324 -84.86646 1232 ft 77 kts 58°
2026-04-23 03:14 38.17741 -84.86682 1152 ft 70 kts 290°
2026-04-23 03:15 38.17799 -84.87206 1193 ft 54 kts 280°
2026-04-23 03:15 38.17939 -84.87660 1171 ft 55 kts 310°
2026-04-23 03:15 38.18335 -84.87588 1154 ft 63 kts 15°
2026-04-23 03:15 38.18759 -84.87596 1173 ft 61 kts 324°
2026-04-23 03:16 38.18933 -84.88052 1148 ft 57 kts 272°
2026-04-23 03:16 38.18924 -84.88532 1109 ft 54 kts 246°
2026-04-23 03:16 38.18685 -84.89343 902 ft 50 kts 243°
2026-04-23 03:17 38.18525 -84.89773 836 ft 55 kts 242°
2026-04-23 03:17 38.18408 -84.90070 797 ft 57 kts 240°
2026-04-23 03:17 38.18274 -84.90412 787 ft 19 kts 238°
2026-04-23 03:17 38.18250 -84.90449 787 ft 5 kts 79°
2026-04-23 03:18 38.18254 -84.90415 787 ft 5 kts 146°
2026-04-23 03:18 38.18220 -84.90395 786 ft 6 kts 153°
2026-04-23 03:18 38.18183 -84.90381 786 ft 5 kts 193°
2026-04-23 03:18 38.18178 -84.90360 786 ft 4 kts 58°